Hourly Data Report for October 08, 2015

All times are specified in Local Standard Time (LST). Add 1 hour to adjust for Daylight Saving Time where and when it is observed.

KITCHENER/WATERLOO
ONTARIO

43°27'39.000" N
80°22'43.000" W
321.60 m
6144239
71368
YKF

Download Data

Hourly Data (October 2015)
Hourly Data Report for October 8, 2015
Temp Definition
°C
Dew Point Temp Definition
°C
Rel Hum Definition
%
Wind Dir Definition
10's deg

Wind Spd Definition
km/h
Visibility Definition
km
Stn Press Definition
kPa
Hmdx Definition


Wind Chill Definition


Weather Definition


TIME
00:00 Legend Double Dagger 5.5 5.2 98 33 4 2.8 98.29     Fog
01:00 Legend Double Dagger 5.4 5.3 99 31 4 9.7 98.30     Fog
02:00 Legend Double Dagger 3.1 3.0 99 35 4 0.4 98.28     Fog
03:00 Legend Double Dagger 3.8 3.7 99 33 4 0.6 98.23     Rain,Fog
04:00 Legend Double Dagger 2.3 2.3 100 29 4 2.4 98.27     Rain,Fog
05:00 Legend Double Dagger 2.3 2.3 100 LegendMM 4 3.2 98.28     Rain,Fog
06:00 Legend Double Dagger 1.5 1.5 100 1 5 3.2 98.31     Fog
07:00 Legend Double Dagger 3.2 3.2 100   0 16.1 98.32     LegendNANA
08:00 Legend Double Dagger 7.4 7.1 98 9 8 16.1 98.31     LegendNANA
09:00 Legend Double Dagger 11.1 8.2 82 10 13 16.1 98.30     LegendNANA
10:00 Legend Double Dagger 12.8 7.9 72 12 21 16.1 98.28     LegendNANA
11:00 Legend Double Dagger 14.6 7.0 60 13 17 16.1 98.25     LegendNANA
12:00 Legend Double Dagger 15.2 6.8 57 12 11 16.1 98.17     LegendNANA
13:00 Legend Double Dagger 16.6 7.7 56 14 9 16.1 98.05     LegendNANA
14:00 Legend Double Dagger 15.9 8.2 60 14 13 16.1 97.98     LegendNANA
15:00 Legend Double Dagger 16.7 8.9 60 14 15 16.1 97.90     LegendNANA
16:00 Legend Double Dagger 14.3 8.9 70 10 17 16.1 97.89     LegendNANA
17:00 Legend Double Dagger 13.5 9.6 77 10 21 16.1 97.83     LegendNANA
18:00 Legend Double Dagger 12.2 9.4 83 10 15 16.1 97.79     LegendNANA
19:00 Legend Double Dagger 11.5 9.3 86 10 22 16.1 97.73     LegendNANA
20:00 Legend Double Dagger 10.8 9.9 94 10 13 8.1 97.71     Rain,Fog
21:00 Legend Double Dagger 10.9 10.1 95 9 21 9.7 97.59     Rain,Fog
22:00 Legend Double Dagger 11.0 10.4 96 10 18 12.9 97.49     Rain
23:00 Legend Double Dagger 10.7 10.1 96 35 9 8.1 97.45     Rain,Fog

Notes on Data Quality.

Legend

  • E = Estimated
  • M = Missing
  • NA = Not Available
  • ‡ = Partner data that is not subject to review by the National Climate Archives
Date modified: